User: anonymous
Location: Observatorio Las Palmas
(29.0667°N, 110.9333°W)
Time: 05:59:59
(UTC-07:00)
Language:

NOAA 19 - Orbit

View from above orbital plane
View from above orbital plane
View from above satellite
View from above satellite

Ground track
Ground track

The orbit data is extracted from the following two-line orbital elements,

1 33591U 09005A   14204.49827184  .00000100  00000-0  79094-4 0  3133
2 33591 098.9462 149.4302 0014354 022.0965 086.8853 14.11738815281115
Epoch (UTC): 23 July 2014 11:57:30
Eccentricity: 0.0014354
inclination: 98.9462°
perigee height: 843 km
apogee height: 864 km
right ascension of ascending node: 149.4302°
argument of perigee: 22.0965°
revolutions per day: 14.11738815
mean anomaly at epoch: 86.8853°
orbit number at epoch: 28111

The dashed part of the orbit path shows where the satellite is in the earth's shadow,  

DLR